[[{"header":{"parameterUnit":"m.s-1","parameterCategory":2,"la1":30.2992,"la2":30.254,"lo1":-89.0895,"lo2":-89.0443,"dy":0.0025,"dx":0.0025,"nx":19,"ny":19,"refTime":"2026-04-30T09:00:00:Z","depth":"0","parameterNumber":2,"parameterNumberName":"U-component_of_CURRENTS"},"data":[0,0,0,-0.1186,-0.1186,-0.1159,-0.1159,-0.1111,-0.1111,0,0,0,0,0,0,0,0,0,0,0,-0.1192,-0.1192,-0.1186,-0.1186,-0.1159,-0.1159,-0.1111,-0.1111,0,0,0,0,0,0,0,0,0,0,0,-0.1192,-0.1192,-0.1192,-0.1186,-0.1159,-0.1159,-0.1111,-0.1133,0,0,0,0,0,0,0,0,0,0,-0.116,-0.1168,-0.1192,-0.1192,-0.1186,-0.1159,-0.1159,-0.1134,-0.1132,-0.1122,0,-0.112,0,-0.1119,-0.1108,-0.1108,0,0,0,-0.1178,-0.117,-0.1167,-0.1192,-0.1186,-0.1159,-0.1169,-0.1133,-0.113,-0.1119,-0.112,-0.1118,-0.1119,-0.1108,-0.1108,-0.1095,-0.1095,0,0,-0.1179,-0.1181,-0.1169,-0.1165,-0.1182,-0.117,-0.1168,-0.1131,-0.1127,-0.112,-0.1117,-0.1118,-0.1107,-0.1107,-0.1095,-0.1095,0,0,0,-0.1189,-0.1182,-0.118,-0.1167,-0.1166,-0.1169,-0.1167,-0.1128,-0.1129,-0.1117,-0.1117,-0.1107,-0.1107,-0.1094,-0.1095,-0.1128,0,0,0,-0.119,-0.1189,-0.1181,-0.1181,-0.1167,-0.1148,-0.1165,-0.1131,-0.1127,-0.1118,-0.1107,-0.1106,-0.1094,-0.1095,-0.1126,-0.1126,0,0,0,-0.1193,-0.1189,-0.1188,-0.1181,-0.1174,-0.1149,-0.1147,-0.113,-0.1128,-0.1108,-0.1106,-0.1094,-0.1094,-0.1125,-0.1124,-0.1109,0,0,0,-0.1193,-0.1191,-0.1188,-0.1188,-0.1175,-0.1173,-0.1147,-0.1138,-0.1124,-0.1107,-0.1094,-0.1095,-0.1125,-0.1123,-0.1108,-0.102,-0.1015,0,0,-0.1193,-0.1191,-0.1194,-0.119,-0.1192,-0.1176,-0.1179,-0.1148,-0.1126,-0.1103,-0.1103,-0.1127,-0.1124,-0.1109,-0.1043,-0.1037,0,0,0,-0.1195,-0.1193,-0.1195,-0.1194,-0.1195,-0.1191,-0.1171,-0.1163,-0.1143,-0.1121,-0.1126,-0.1122,-0.1112,-0.1057,-0.1053,-0.1057,-0.1096,-0.1096,-0.1096,-0.1184,-0.1191,-0.1193,-0.12,-0.1203,-0.12,-0.1198,-0.1181,-0.1163,-0.1163,-0.115,-0.1159,-0.1103,-0.1098,-0.1105,-0.1157,-0.1157,-0.1157,-0.1157,-0.1176,-0.1171,-0.1189,-0.1192,-0.1202,-0.1205,-0.1212,-0.1206,-0.1189,-0.1179,-0.1167,-0.1095,-0.1095,-0.1104,-0.1159,-0.1159,-0.1159,-0.1158,-0.1158,-0.1156,-0.1154,-0.1164,-0.1172,-0.1186,-0.1201,-0.1197,-0.1209,-0.1201,-0.1201,-0.1109,-0.1107,-0.1111,-0.1185,-0.1185,-0.1185,-0.1185,-0.1185,-0.1185,-0.1121,-0.1134,-0.1126,-0.1146,-0.1151,-0.1164,-0.1181,-0.1171,-0.1138,-0.1122,-0.112,-0.1109,-0.1166,-0.1161,-0.1184,-0.1184,-0.1184,-0.1184,-0.1185,-0.1068,-0.1081,-0.107,-0.1071,-0.1082,-0.1065,-0.1104,-0.1057,-0.1052,-0.1015,-0.1027,-0.1073,-0.1043,-0.1045,-0.1037,-0.1026,-0.1026,-0.1026,-0.1026,-0.1023,-0.1033,-0.1002,-0.099,-0.099,-0.1007,-0.0944,-0.093,-0.0928,-0.0922,-0.0968,-0.0957,-0.0963,-0.093,-0.0935,-0.0924,-0.0885,-0.0885,-0.0885,-0.0972,-0.0979,-0.0934,-0.0936,-0.0934,-0.0924,-0.0854,-0.0855,-0.0868,-0.0885,-0.0997,-0.1003,-0.0995,-0.1004,-0.0959,-0.0965,-0.0951,0,0]},{"header":{"parameterUnit":"m.s-1","parameterCategory":2,"la1":30.2992,"la2":30.254,"lo1":-89.0895,"lo2":-89.0443,"dy":0.0025,"dx":0.0025,"nx":19,"ny":19,"refTime":"2026-04-30T09:00:00:Z","depth":"0","parameterNumber":3,"parameterNumberName":"V-component_of_CURRENTS"},"data":[0,0,0,-0.0446,-0.0445,-0.0408,-0.0407,-0.0365,-0.0364,0,0,0,0,0,0,0,0,0,0,0,-0.0459,-0.0459,-0.0446,-0.0445,-0.0408,-0.0407,-0.0365,-0.0364,0,0,0,0,0,0,0,0,0,0,0,-0.0459,-0.0459,-0.0459,-0.0445,-0.0408,-0.0407,-0.0365,-0.039,0,0,0,0,0,0,0,0,0,0,-0.0426,-0.0442,-0.0459,-0.0459,-0.0445,-0.0408,-0.0407,-0.0392,-0.0389,-0.0385,0,-0.0382,0,-0.0375,-0.0362,-0.0362,0,0,0,-0.044,-0.0444,-0.0432,-0.0459,-0.0445,-0.0408,-0.0423,-0.039,-0.0387,-0.0381,-0.0381,-0.038,-0.0374,-0.0362,-0.0362,-0.0345,-0.0345,0,0,-0.0442,-0.0452,-0.0434,-0.0431,-0.0439,-0.0424,-0.0422,-0.0388,-0.0388,-0.0381,-0.0379,-0.0373,-0.0362,-0.0361,-0.0345,-0.0345,0,0,0,-0.0451,-0.0454,-0.0443,-0.0432,-0.0426,-0.0423,-0.0421,-0.0389,-0.0385,-0.0378,-0.0373,-0.0361,-0.0361,-0.0345,-0.0345,-0.0382,0,0,0,-0.0452,-0.046,-0.0444,-0.045,-0.0427,-0.0407,-0.0423,-0.0387,-0.0383,-0.0373,-0.0361,-0.0361,-0.0345,-0.0345,-0.0381,-0.04,0,0,0,-0.046,-0.0461,-0.0457,-0.045,-0.0436,-0.0408,-0.0401,-0.0386,-0.038,-0.0362,-0.0361,-0.0345,-0.0345,-0.038,-0.0398,-0.0372,0,0,0,-0.047,-0.0475,-0.0457,-0.0462,-0.0437,-0.0424,-0.0401,-0.0388,-0.0374,-0.0361,-0.0345,-0.0345,-0.0379,-0.0397,-0.0372,-0.0305,-0.0303,0,0,-0.0484,-0.0477,-0.048,-0.0463,-0.0463,-0.0429,-0.0427,-0.0398,-0.0375,-0.0355,-0.0355,-0.0381,-0.0398,-0.0372,-0.0315,-0.0312,0,0,0,-0.0489,-0.0495,-0.049,-0.0486,-0.0467,-0.0454,-0.0423,-0.0409,-0.0388,-0.0368,-0.0374,-0.0383,-0.0366,-0.0324,-0.0322,-0.0264,-0.0346,-0.0346,-0.0346,-0.0523,-0.0514,-0.0524,-0.0513,-0.0502,-0.047,-0.0457,-0.0432,-0.0407,-0.0404,-0.0408,-0.0409,-0.0366,-0.0363,-0.0305,-0.04,-0.04,-0.04,-0.04,-0.056,-0.057,-0.0557,-0.0565,-0.0542,-0.0535,-0.0496,-0.0475,-0.0445,-0.0435,-0.0415,-0.036,-0.0362,-0.0301,-0.0403,-0.0402,-0.0402,-0.0402,-0.0401,-0.0593,-0.0597,-0.06,-0.0609,-0.0604,-0.0574,-0.0549,-0.052,-0.0478,-0.0469,-0.0381,-0.038,-0.0327,-0.0444,-0.0444,-0.0444,-0.0444,-0.0444,-0.0444,-0.0626,-0.0628,-0.0649,-0.0653,-0.0655,-0.0636,-0.0579,-0.0536,-0.0454,-0.0413,-0.0411,-0.0315,-0.0421,-0.0421,-0.0443,-0.0443,-0.0443,-0.0443,-0.0443,-0.0664,-0.0666,-0.0697,-0.0706,-0.07,-0.0659,-0.0601,-0.0462,-0.0413,-0.0353,-0.0258,-0.0365,-0.0338,-0.0338,-0.0335,-0.0334,-0.0334,-0.0334,-0.0334,-0.0688,-0.0692,-0.0729,-0.0743,-0.0732,-0.067,-0.0528,-0.0379,-0.0235,-0.0168,-0.0182,-0.0159,-0.0166,-0.0129,-0.0134,-0.0126,-0.0072,-0.0072,-0.0072,-0.0709,-0.072,-0.0744,-0.0757,-0.0745,-0.0653,-0.0486,-0.0273,-0.0092,-0.0059,-0.0116,-0.0128,-0.0094,-0.0109,-0.0051,-0.0063,-0.005,0,0]}],[{"header":{"parameterUnit":"m.s-1","parameterCategory":2,"la1":30.2992,"la2":30.254,"lo1":-89.0895,"lo2":-89.0443,"dy":0.0025,"dx":0.0025,"nx":19,"ny":19,"refTime":"2026-04-30T09:00:00:Z","depth":"2","parameterNumber":2,"parameterNumberName":"U-component_of_CURRENTS"},"data":[0,0,0,-0.108,-0.1079,-0.1056,-0.1056,-0.1009,-0.1008,0,0,0,0,0,0,0,0,0,0,0,-0.1084,-0.1084,-0.108,-0.1079,-0.1056,-0.1056,-0.1009,-0.1008,0,0,0,0,0,0,0,0,0,0,0,-0.1084,-0.1084,-0.1084,-0.1079,-0.1056,-0.1056,-0.1009,-0.1029,0,0,0,0,0,0,0,0,0,0,-0.1053,-0.1062,-0.1084,-0.1084,-0.1079,-0.1056,-0.1056,-0.103,-0.1028,-0.1017,0,-0.1016,0,-0.1016,-0.1005,-0.1005,0,0,0,-0.1071,-0.1064,-0.106,-0.1084,-0.1079,-0.1056,-0.1064,-0.1029,-0.1026,-0.1014,-0.1016,-0.1014,-0.1015,-0.1005,-0.1005,-0.099,-0.099,0,0,-0.1073,-0.1075,-0.1062,-0.1059,-0.1077,-0.1065,-0.1064,-0.1027,-0.1024,-0.1016,-0.1013,-0.1014,-0.1005,-0.1005,-0.0989,-0.099,0,0,0,-0.1082,-0.1076,-0.1074,-0.1061,-0.106,-0.1065,-0.1063,-0.1025,-0.1025,-0.1013,-0.1014,-0.1005,-0.1004,-0.0989,-0.0989,-0.1026,0,0,0,-0.1082,-0.1082,-0.1075,-0.1075,-0.1061,-0.1045,-0.1062,-0.1028,-0.1024,-0.1014,-0.1005,-0.1004,-0.0989,-0.0989,-0.1024,-0.1025,0,0,0,-0.1085,-0.1082,-0.1082,-0.1076,-0.107,-0.1046,-0.1043,-0.1027,-0.1025,-0.1005,-0.1004,-0.0989,-0.0989,-0.1023,-0.1024,-0.1008,0,0,0,-0.1085,-0.1085,-0.1082,-0.1083,-0.107,-0.1068,-0.1043,-0.1035,-0.1022,-0.1004,-0.0989,-0.0989,-0.1023,-0.1023,-0.1007,-0.0914,-0.0909,0,0,-0.1087,-0.1086,-0.1088,-0.1084,-0.1087,-0.107,-0.1073,-0.1044,-0.1023,-0.0998,-0.0998,-0.1025,-0.1024,-0.1008,-0.0934,-0.0929,0,0,0,-0.109,-0.1088,-0.109,-0.1089,-0.1089,-0.1085,-0.1065,-0.1057,-0.1039,-0.1017,-0.1022,-0.1019,-0.1008,-0.0951,-0.0947,-0.0991,-0.0991,-0.0991,-0.0991,-0.1083,-0.1089,-0.109,-0.1095,-0.1098,-0.1095,-0.1092,-0.1076,-0.1057,-0.1058,-0.1047,-0.1056,-0.0997,-0.0993,-0.1053,-0.1053,-0.1053,-0.1053,-0.1053,-0.1078,-0.1073,-0.1089,-0.1092,-0.1101,-0.1104,-0.1107,-0.1102,-0.1086,-0.1076,-0.1064,-0.099,-0.099,-0.1056,-0.1056,-0.1055,-0.1055,-0.1055,-0.1055,-0.1062,-0.1059,-0.107,-0.1077,-0.1091,-0.1103,-0.11,-0.1111,-0.1102,-0.1102,-0.1006,-0.1004,-0.1061,-0.1087,-0.1087,-0.1087,-0.1087,-0.1086,-0.1086,-0.1033,-0.1044,-0.1038,-0.1057,-0.1061,-0.1074,-0.1089,-0.1077,-0.104,-0.1021,-0.102,-0.1067,-0.1066,-0.1062,-0.1086,-0.1086,-0.1086,-0.1086,-0.1086,-0.0985,-0.0998,-0.0988,-0.0989,-0.0998,-0.0971,-0.1014,-0.0961,-0.0956,-0.0915,-0.0967,-0.097,-0.0939,-0.0941,-0.0933,-0.0922,-0.0922,-0.0922,-0.0922,-0.0945,-0.0953,-0.0924,-0.0912,-0.0909,-0.0912,-0.0817,-0.0754,-0.0762,-0.0746,-0.0753,-0.0731,-0.0742,-0.0699,-0.0706,-0.0694,-0.062,-0.062,-0.0619,-0.0897,-0.0902,-0.0859,-0.086,-0.0855,-0.0821,-0.0687,-0.0544,-0.0521,-0.0608,-0.0709,-0.09,-0.0889,-0.0897,-0.0847,-0.0853,-0.084,0,0]},{"header":{"parameterUnit":"m.s-1","parameterCategory":2,"la1":30.2992,"la2":30.254,"lo1":-89.0895,"lo2":-89.0443,"dy":0.0025,"dx":0.0025,"nx":19,"ny":19,"refTime":"2026-04-30T09:00:00:Z","depth":"2","parameterNumber":3,"parameterNumberName":"V-component_of_CURRENTS"},"data":[0,0,0,-0.0386,-0.0386,-0.0351,-0.035,-0.0307,-0.0307,0,0,0,0,0,0,0,0,0,0,0,-0.0399,-0.0399,-0.0386,-0.0386,-0.0351,-0.035,-0.0307,-0.0307,0,0,0,0,0,0,0,0,0,0,0,-0.0399,-0.0399,-0.0399,-0.0386,-0.0351,-0.035,-0.0307,-0.0332,0,0,0,0,0,0,0,0,0,0,-0.0365,-0.0382,-0.0399,-0.0399,-0.0386,-0.0351,-0.035,-0.0333,-0.033,-0.0325,0,-0.0324,0,-0.0317,-0.0305,-0.0304,0,0,0,-0.038,-0.0384,-0.0373,-0.0399,-0.0385,-0.0351,-0.0365,-0.0332,-0.0329,-0.0322,-0.0323,-0.0321,-0.0316,-0.0304,-0.0304,-0.028,-0.028,0,0,-0.0382,-0.0393,-0.0375,-0.0371,-0.0381,-0.0366,-0.0364,-0.033,-0.033,-0.0323,-0.032,-0.0315,-0.0304,-0.0304,-0.028,-0.028,0,0,0,-0.0391,-0.0394,-0.0383,-0.0373,-0.0367,-0.0365,-0.0363,-0.0331,-0.0327,-0.032,-0.0315,-0.0304,-0.0303,-0.028,-0.028,-0.0314,0,0,0,-0.0392,-0.04,-0.0384,-0.039,-0.0368,-0.035,-0.0365,-0.033,-0.0325,-0.0315,-0.0304,-0.0303,-0.028,-0.028,-0.0314,-0.0332,0,0,0,-0.04,-0.0401,-0.0398,-0.0391,-0.0378,-0.035,-0.0344,-0.0328,-0.0323,-0.0304,-0.0303,-0.028,-0.028,-0.0313,-0.033,-0.0304,0,0,0,-0.041,-0.0414,-0.0398,-0.0401,-0.0379,-0.0363,-0.0344,-0.0329,-0.0316,-0.0304,-0.028,-0.028,-0.0312,-0.0329,-0.0303,-0.0243,-0.024,0,0,-0.0423,-0.0416,-0.0418,-0.0402,-0.0398,-0.0367,-0.036,-0.0334,-0.0313,-0.029,-0.0289,-0.0314,-0.033,-0.0303,-0.0242,-0.0239,0,0,0,-0.0426,-0.0431,-0.0425,-0.0419,-0.0399,-0.0384,-0.0354,-0.034,-0.0319,-0.0305,-0.0304,-0.0313,-0.0295,-0.0257,-0.0255,-0.028,-0.028,-0.028,-0.028,-0.0459,-0.0448,-0.0454,-0.044,-0.0427,-0.0394,-0.0379,-0.0353,-0.0332,-0.0328,-0.0333,-0.0328,-0.029,-0.0287,-0.0322,-0.0322,-0.0322,-0.0323,-0.0323,-0.0492,-0.05,-0.0483,-0.0487,-0.0462,-0.0452,-0.0408,-0.039,-0.0359,-0.0353,-0.0333,-0.0287,-0.0286,-0.0325,-0.0325,-0.0324,-0.0324,-0.0324,-0.0324,-0.0524,-0.0527,-0.0528,-0.0532,-0.0523,-0.049,-0.0463,-0.0432,-0.0391,-0.0381,-0.0301,-0.03,-0.0341,-0.0358,-0.0358,-0.0358,-0.0358,-0.0358,-0.0358,-0.0559,-0.0558,-0.0578,-0.0577,-0.0577,-0.0556,-0.0495,-0.0452,-0.037,-0.033,-0.0329,-0.0339,-0.0338,-0.0341,-0.0358,-0.0358,-0.0358,-0.0358,-0.0358,-0.0597,-0.06,-0.0628,-0.0636,-0.0626,-0.0582,-0.0522,-0.0385,-0.0335,-0.0277,-0.0282,-0.0284,-0.0259,-0.026,-0.026,-0.0254,-0.0254,-0.0254,-0.0254,-0.0623,-0.0627,-0.0663,-0.0676,-0.0662,-0.0594,-0.0453,-0.0297,-0.0205,-0.0166,-0.017,-0.0157,-0.0163,-0.0132,-0.0136,-0.0133,-0.0095,-0.0095,-0.0094,-0.0645,-0.0656,-0.0681,-0.0692,-0.0677,-0.0579,-0.0409,-0.0196,-0.0077,-0.009,-0.016,-0.024,-0.0232,-0.0237,-0.0197,-0.02,-0.0198,0,0]}],[{"header":{"parameterUnit":"m.s-1","parameterCategory":2,"la1":30.2992,"la2":30.254,"lo1":-89.0895,"lo2":-89.0443,"dy":0.0025,"dx":0.0025,"nx":19,"ny":19,"refTime":"2026-04-30T09:00:00:Z","depth":"4","parameterNumber":2,"parameterNumberName":"U-component_of_CURRENTS"},"data":[0,0,0,-0.0725,-0.0726,-0.0752,-0.0752,-0.0744,-0.0744,0,0,0,0,0,0,0,0,0,0,0,-0.0718,-0.0718,-0.0725,-0.0726,-0.0752,-0.0752,-0.0745,-0.0744,0,0,0,0,0,0,0,0,0,0,0,-0.0718,-0.0718,-0.0718,-0.0726,-0.0752,-0.0752,-0.0745,-0.0734,0,0,0,0,0,0,0,0,0,0,-0.0713,-0.0717,-0.0718,-0.0719,-0.0726,-0.0752,-0.0752,-0.0734,-0.0735,-0.0722,0,-0.0732,0,-0.0738,-0.0743,-0.0743,0,0,0,-0.0722,-0.0716,-0.0721,-0.0719,-0.0726,-0.0752,-0.0739,-0.0735,-0.0735,-0.0723,-0.0732,-0.0732,-0.0738,-0.0743,-0.0743,-0.0727,-0.0727,0,0,-0.0721,-0.0722,-0.0721,-0.0722,-0.074,-0.0738,-0.074,-0.0736,-0.074,-0.0732,-0.0732,-0.0737,-0.0743,-0.0743,-0.0727,-0.0727,0,0,0,-0.0719,-0.0721,-0.0727,-0.0722,-0.073,-0.0739,-0.0741,-0.074,-0.0742,-0.0732,-0.0737,-0.0743,-0.0743,-0.0727,-0.0727,-0.0747,0,0,0,-0.0718,-0.072,-0.0727,-0.0727,-0.073,-0.0741,-0.0745,-0.0742,-0.0742,-0.0737,-0.0743,-0.0743,-0.0727,-0.0727,-0.0747,-0.0753,0,0,0,-0.0715,-0.072,-0.0725,-0.0727,-0.074,-0.0742,-0.0743,-0.0742,-0.0745,-0.0743,-0.0742,-0.0727,-0.0727,-0.0747,-0.0752,-0.0745,0,0,0,-0.0713,-0.0722,-0.0725,-0.0739,-0.074,-0.0752,-0.0744,-0.0756,-0.0758,-0.0743,-0.0727,-0.0727,-0.0746,-0.0752,-0.0745,-0.0652,0,0,0,-0.072,-0.0723,-0.0731,-0.0734,-0.0749,-0.0748,-0.0756,-0.0758,-0.0748,-0.0725,-0.0725,-0.0747,-0.0752,-0.0745,-0.0646,0,0,0,0,-0.073,-0.0736,-0.0741,-0.0753,-0.0761,-0.0764,-0.0766,-0.0758,-0.0749,-0.0749,-0.0739,-0.0741,-0.0736,-0.0681,-0.0726,-0.0726,-0.0726,-0.0726,-0.0726,-0.0733,-0.0741,-0.0753,-0.0762,-0.0771,-0.0775,-0.0772,-0.0758,-0.0754,-0.0751,-0.0752,-0.0752,-0.0694,-0.0746,-0.0746,-0.0746,-0.0746,-0.0746,-0.0746,-0.0736,-0.0736,-0.0756,-0.0771,-0.0778,-0.0787,-0.0774,-0.0771,-0.0755,-0.0754,-0.0748,-0.0699,-0.0748,-0.0748,-0.0747,-0.0747,-0.0747,-0.0747,-0.0747,-0.0725,-0.0724,-0.0747,-0.0767,-0.0785,-0.0795,-0.0785,-0.0789,-0.0771,-0.077,-0.0704,-0.0758,-0.0763,-0.0772,-0.0772,-0.0772,-0.0772,-0.0772,-0.0772,-0.0696,-0.0716,-0.0727,-0.0758,-0.0772,-0.0789,-0.0797,-0.0776,-0.0773,-0.071,-0.0779,-0.076,-0.0759,-0.0763,-0.0772,-0.0772,-0.0772,-0.0772,-0.0772,-0.0658,-0.0677,-0.0685,-0.0701,-0.0727,-0.0733,-0.0771,-0.0713,-0.0685,-0.0635,-0.0666,-0.0672,-0.0652,-0.0654,-0.0653,-0.063,-0.0628,-0.0627,0,-0.0625,-0.0637,-0.0633,-0.0637,-0.0639,-0.0682,-0.0625,-0.0615,-0.0599,-0.0583,-0.0676,-0.0714,-0.0716,-0.0697,-0.0697,-0.0697,0,0,0,-0.059,-0.0595,-0.0573,-0.0587,-0.0584,-0.0569,-0.0601,-0.0561,-0.0621,-0.0552,-0.0598,-0.0605,-0.0708,-0.0772,-0.0754,-0.0753,-0.0758,0,0]},{"header":{"parameterUnit":"m.s-1","parameterCategory":2,"la1":30.2992,"la2":30.254,"lo1":-89.0895,"lo2":-89.0443,"dy":0.0025,"dx":0.0025,"nx":19,"ny":19,"refTime":"2026-04-30T09:00:00:Z","depth":"4","parameterNumber":3,"parameterNumberName":"V-component_of_CURRENTS"},"data":[0,0,0,-0.0231,-0.0231,-0.0219,-0.0219,-0.019,-0.019,0,0,0,0,0,0,0,0,0,0,0,-0.0236,-0.0236,-0.0231,-0.0231,-0.0219,-0.0219,-0.019,-0.019,0,0,0,0,0,0,0,0,0,0,0,-0.0236,-0.0236,-0.0236,-0.0231,-0.0219,-0.0219,-0.019,-0.0202,0,0,0,0,0,0,0,0,0,0,-0.0214,-0.0227,-0.0236,-0.0236,-0.0231,-0.0219,-0.0219,-0.0202,-0.0201,-0.0193,0,-0.0196,0,-0.0194,-0.0188,-0.0188,0,0,0,-0.0226,-0.0228,-0.0222,-0.0236,-0.0231,-0.0219,-0.0223,-0.0202,-0.02,-0.0192,-0.0196,-0.0195,-0.0193,-0.0188,-0.0188,-0.0134,-0.0134,0,0,-0.0227,-0.0235,-0.0223,-0.0221,-0.0233,-0.0223,-0.0223,-0.0201,-0.0203,-0.0196,-0.0194,-0.0193,-0.0188,-0.0188,-0.0135,-0.0134,0,0,0,-0.0232,-0.0236,-0.023,-0.0222,-0.0222,-0.0223,-0.0222,-0.0204,-0.0202,-0.0194,-0.0193,-0.0188,-0.0188,-0.0135,-0.0134,-0.0132,0,0,0,-0.0232,-0.0239,-0.0231,-0.0236,-0.0222,-0.0216,-0.0226,-0.0203,-0.0201,-0.0193,-0.0188,-0.0187,-0.0136,-0.0135,-0.0133,-0.0145,0,0,0,-0.0236,-0.024,-0.0239,-0.0236,-0.0233,-0.0216,-0.0212,-0.0203,-0.02,-0.0188,-0.0187,-0.0136,-0.0135,-0.0134,-0.0145,-0.0123,0,0,0,-0.0243,-0.0246,-0.024,-0.024,-0.0233,-0.0213,-0.0212,-0.0203,-0.0194,-0.0188,-0.0135,-0.0135,-0.0135,-0.0146,-0.0124,-0.0141,0,0,0,-0.0249,-0.0247,-0.0245,-0.0239,-0.0225,-0.0214,-0.0187,-0.018,-0.0173,-0.0142,-0.0141,-0.0133,-0.0145,-0.0123,-0.0085,0,0,0,0,-0.0248,-0.0248,-0.0242,-0.0234,-0.0217,-0.0191,-0.0179,-0.016,-0.0133,-0.0164,-0.0114,-0.0122,-0.0108,-0.012,-0.013,-0.013,-0.013,-0.013,-0.013,-0.0267,-0.0253,-0.0247,-0.0226,-0.021,-0.0173,-0.0144,-0.0112,-0.0117,-0.0098,-0.0106,-0.0071,-0.0081,-0.0083,-0.0083,-0.0083,-0.0083,-0.0083,-0.0083,-0.0275,-0.027,-0.0249,-0.0242,-0.0208,-0.0185,-0.0116,-0.0103,-0.006,-0.0073,-0.0059,-0.0099,-0.0083,-0.0083,-0.0083,-0.0083,-0.0083,-0.0083,-0.0083,-0.0289,-0.0283,-0.0283,-0.027,-0.0245,-0.0203,-0.0158,-0.0115,-0.0069,-0.0052,-0.0064,-0.0064,-0.008,-0.0053,-0.0053,-0.0053,-0.0053,-0.0053,-0.0053,-0.0306,-0.0299,-0.0314,-0.0299,-0.0298,-0.0269,-0.0196,-0.0149,-0.0097,-0.0066,-0.0065,-0.006,-0.0061,-0.0077,-0.0052,-0.0052,-0.0052,-0.0052,-0.0052,-0.0316,-0.033,-0.0347,-0.0357,-0.0343,-0.0314,-0.0252,-0.0149,-0.0101,-0.0054,-0.0054,-0.0055,-0.0057,-0.0058,-0.0074,-0.0047,-0.0047,-0.0047,0,-0.0334,-0.0337,-0.0372,-0.0386,-0.0374,-0.0332,-0.0257,-0.0188,-0.0109,-0.0115,-0.0108,-0.0114,-0.0112,-0.0121,-0.0122,-0.0144,0,0,0,-0.0344,-0.0355,-0.038,-0.0397,-0.0386,-0.0291,-0.0231,-0.0196,-0.0127,-0.0067,-0.005,-0.005,-0.007,-0.0049,-0.0053,-0.0054,-0.0079,0,0]}]]